Dewpoint
50 52 53 54 56 58 59 58 57 55 56 56 55 56 55 57 59 56 52 54 55 57 56 53 48 45 44 44 44 44 40 35 34 31 29 26 30 31 33 31 30 32 32 44 51
47 50 51 52 53 56 57 59 57 56 56 55 55 55 55 57 55 51 55 58 57 59 50 46 44 44 42 42 42 43 41 38 34 31 30 28 31 31 31 31 31 32 37 44 46
46 47 49 51 50 53 55 58 58 57 56 55 55 55 56 55 51 48 57 58 59 58 53 48 44 42 42 41 39 41 39 35 32 30 39 38 36 35 33 33 33 31 33 39 45
47 45 47 49 50 51 53 55 58 58 56 55 54 55 56 52 41 53 59 59 61 57 53 49 43 41 40 38 38 36 37 37 37 37 40 39 39 38 35 35 37 36 37 40 41
47 46 47 48 51 51 51 53 57 58 56 55 54 55 51 48 46 54 56 56 57 57 53 49 42 40 37 36 36 36 36 36 37 38 38 40 40 39 39 38 38 38 38 39 41
47 47 45 47 49 51 51 52 54 58 57 55 54 55 48 39 45 48 46 46 49 54 54 52 44 43 41 38 35 37 37 36 35 35 37 36 36 37 35 35 35 36 37 38 40
47 47 46 46 48 50 51 51 54 57 57 55 53 50 43 39 39 44 44 45 48 49 52 53 50 45 43 41 41 38 37 37 37 36 36 36 35 35 36 36 35 33 33 34 36
47 46 46 46 48 49 50 51 52 57 57 55 53 48 41 44 44 41 44 45 48 51 51 52 51 47 45 42 39 38 38 35 34 36 35 35 31 33 33 34 34 34 33 33 34
46 46 47 47 48 48 49 50 51 55 57 54 48 45 38 43 40 40 42 43 46 47 52 50 49 46 44 39 36 35 30 31 31 34 33 33 32 34 35 34 34 33 32 32 32
46 47 47 47 48 48 49 49 51 54 55 51 45 42 40 38 38 38 40 43 43 46 48 48 46 42 41 38 31 30 30 30 29 31 32 31 31 32 31 31 31 34 34 34 34
46 45 46 48 48 47 48 47 46 44 49 42 41 37 38 40 40 38 40 42 40 43 38 41 39 36 37 38 36 32 28 27 28 29 28 29 28 29 29 28 29 30 30 32 33
46 44 47 47 48 48 47 40 42 46 42 46 41 39 39 40 37 38 41 39 38 36 35 36 33 33 33 31 31 29 28 28 29 28 27 26 26 27 27 26 26 27 28 29 31
45 44 46 49 48 46 42 41 49 49 39 41 40 38 39 39 37 38 39 38 36 35 35 33 31 33 33 31 30 30 29 28 27 27 27 26 24 24 24 25 25 26 25 26 26
44 45 46 47 46 43 40 42 49 49 33 38 38 39 40 41 36 38 38 36 35 33 34 34 33 29 31 30 30 28 29 28 27 27 24 27 23 23 23 22 22 23 24 25 25
44 44 46 47 45 42 42 46 48 44 22 39 38 41 40 37 38 37 39 36 32 31 33 32 31 31 30 29 29 28 31 29 29 28 27 26 24 23 21 20 20 22 23 24 25
44 45 47 46 47 43 47 47 44 29 22 36 37 37 38 37 36 37 37 39 36 32 32 31 32 32 31 30 30 32 29 30 29 28 23 25 24 23 17 17 17 19 22 24 22
45 47 47 46 41 47 47 43 28 23 36 34 33 34 34 34 36 36 36 34 32 30 32 31 31 31 32 31 32 30 30 21 23 23 19 19 23 21 18 18 19 19 20 21 23
47 49 47 46 49 46 45 36 23 28 34 31 34 33 31 32 34 34 34 32 33 31 32 27 26 30 32 31 29 29 30 22 17 18 20 22 19 17 20 20 19 20 20 22 22
48 46 47 47 48 44 38 29 28 30 30 33 34 32 31 31 32 33 33 31 31 31 31 28 29 31 32 32 32 30 28 29 26 23 18 19 14 15 17 17 18 19 20 22 22
46 44 45 48 46 43 35 33 34 32 32 33 30 29 29 29 31 32 31 30 29 30 31 33 28 29 32 31 31 30 30 27 26 11 15 16 16 16 18 23 25 22 20 21 24
45 38 45 48 47 40 32 33 35 32 33 30 28 26 27 28 30 28 28 30 30 30 31 31 30 28 31 31 29 29 29 29 27 26 18 18 17 21 24 26 26 27 24 25 25
43 35 47 48 37 37 34 37 37 34 35 32 30 27 27 27 29 27 28 29 31 31 29 30 32 28 27 29 30 30 29 27 24 20 25 24 22 25 24 24 26 26 26 26 25
39 39 47 47 32 34 36 37 34 34 34 33 30 30 29 29 28 29 31 33 34 32 31 32 31 21 25 28 27 27 28 29 29 30 26 24 21 24 25 27 29 29 29 29 30
40 35 40 43 42 36 37 35 35 39 35 34 32 31 29 30 30 29 31 34 34 33 38 35 31 27 23 26 30 27 29 28 31 28 26 26 25 27 30 34 36 36 34 35 32
43 37 38 35 37 38 37 36 32 33 36 35 33 31 29 28 29 29 31 34 34 36 33 32 29 29 29 28 28 29 30 31 33 34 30 31 32 34 37 37 36 34 35 35 35
39 39 41 35 34 36 37 34 33 33 33 32 32 32 32 30 31 29 31 32 33 34 32 33 30 31 26 29 29 29 31 32 32 34 36 37 36 36 35 33 37 41 39 39 38
43 43 41 36 35 33 34 34 34 35 36 34 34 33 33 35 34 34 35 33 34 33 32 33 32 31 27 31 31 29 33 35 37 38 37 34 36 36 36 37 40 42 42 42 41
Lifted_Index
7 6 5 4 3 2 1 1 2 3 3 4 4 4 4 4 3 3 3 3 3 3 4 4 4 5 5 5 4 4 4 4 4 4 4 4 4 5 5 4 4 4 3 1 0
7 7 6 5 4 3 2 1 1 2 3 3 4 4 4 4 3 3 3 3 2 3 4 4 5 5 5 5 5 4 4 4 4 4 4 4 4 5 5 4 4 4 3 2 1
8 8 7 6 5 4 3 2 1 2 2 3 4 4 4 3 3 3 2 2 2 2 3 4 5 5 5 5 5 5 4 4 5 4 4 4 4 5 5 5 4 4 4 3 2
8 8 8 7 6 6 4 3 2 2 2 3 3 4 3 3 2 2 2 1 1 2 2 4 5 5 5 6 6 5 5 5 5 5 4 4 4 5 5 5 5 5 4 4 3
8 8 8 8 7 6 5 4 2 2 2 3 3 3 3 3 3 2 2 2 1 1 2 3 4 5 5 6 6 6 5 5 5 5 5 5 5 5 5 5 5 5 5 4 4
8 8 8 8 7 7 6 4 3 2 2 3 3 3 4 4 4 3 3 3 2 1 1 2 3 4 5 5 6 6 6 5 5 5 5 6 6 6 6 6 5 5 5 5 4
9 9 9 8 8 7 6 5 4 2 2 3 3 4 4 4 5 5 4 4 3 2 1 2 3 4 4 5 5 5 5 5 5 6 6 6 7 7 7 6 6 6 6 6 5
9 9 9 8 8 7 7 6 4 3 2 2 3 4 4 5 5 5 4 4 3 2 2 2 3 3 4 4 5 5 5 5 5 5 6 6 6 7 7 7 7 7 7 7 6
8 7 7 7 7 7 7 6 5 3 2 2 3 4 4 5 5 5 4 4 3 2 2 2 3 3 4 4 4 4 4 5 5 5 6 6 7 7 7 7 7 7 7 7 7
5 5 4 4 4 5 6 6 5 3 2 3 3 4 4 5 5 5 4 4 3 2 2 2 3 3 4 4 4 4 4 4 5 5 6 6 7 7 7 7 7 7 7 7 7
3 3 2 2 2 3 5 5 5 4 3 3 3 4 4 4 5 5 4 4 3 3 3 3 3 3 4 3 4 4 4 4 4 5 6 6 7 7 8 8 7 7 7 7 7
1 1 1 0 1 2 3 5 5 4 3 3 3 3 3 4 4 4 4 4 3 3 4 4 4 4 4 4 4 4 4 4 5 5 6 6 6 6 7 7 7 7 7 7 7
1 1 0 0 1 2 3 4 5 4 3 3 3 3 3 3 4 4 4 4 3 3 4 4 4 4 5 5 5 5 5 5 5 5 6 5 4 4 6 6 7 7 7 7 7
1 1 1 0 1 2 3 4 5 4 3 2 3 3 3 3 3 4 4 4 4 4 4 4 4 5 5 5 5 5 5 6 6 5 4 4 3 3 4 5 6 7 7 7 7
1 1 1 1 1 1 2 4 4 4 2 2 3 3 3 3 3 4 4 4 4 4 4 5 5 5 5 5 6 6 6 6 6 5 4 3 3 3 4 5 6 7 7 7 7
2 1 1 0 0 1 2 3 4 3 2 2 3 3 3 3 4 4 5 5 5 5 5 5 5 5 6 6 6 6 6 5 5 4 3 3 3 3 4 6 6 7 7 7 7
2 1 1 0 0 1 2 3 4 3 2 2 3 4 4 4 4 4 5 5 5 5 5 5 5 6 6 6 6 6 5 3 2 2 2 4 4 4 5 6 7 7 6 6 6
1 1 0 -0 0 1 2 3 3 2 2 3 3 3 4 4 4 5 5 5 5 5 4 4 4 5 6 6 6 6 5 3 2 1 2 4 4 5 6 6 6 6 6 6 6
1 1 0 0 1 2 3 2 2 2 2 3 3 3 3 4 4 5 5 5 6 5 5 4 4 5 6 6 6 6 5 4 3 2 2 3 4 5 5 5 6 6 6 6 6
1 1 0 0 2 2 2 2 2 2 2 3 3 3 3 4 4 4 5 5 5 5 5 4 4 5 6 6 6 6 6 5 4 3 1 2 3 4 4 4 4 5 5 6 6
2 1 1 1 2 3 2 2 1 2 2 2 3 3 4 4 4 4 4 5 5 5 5 5 5 5 5 5 6 6 6 6 5 3 2 2 3 4 4 4 3 4 4 4 4
2 1 1 2 2 2 2 1 1 2 2 2 3 3 4 4 4 4 4 4 5 5 5 5 4 4 4 5 6 6 6 5 5 4 3 2 3 4 4 4 4 4 4 3 3
2 2 2 2 2 2 2 1 1 1 1 2 2 3 3 4 3 4 4 4 5 5 5 5 4 3 3 5 6 5 5 5 4 4 3 2 3 4 4 4 4 4 3 3 2
2 2 2 2 2 1 1 2 1 1 1 1 2 2 3 3 3 3 4 4 5 5 5 5 4 3 4 5 5 4 4 4 4 3 2 3 3 4 4 4 3 3 2 2 1
2 2 2 2 2 1 1 1 1 1 1 1 2 2 2 3 3 3 3 4 4 5 5 5 4 4 4 5 4 4 3 3 3 2 2 2 3 4 4 4 3 2 2 1 1
2 2 2 2 2 1 1 1 1 1 1 2 2 2 3 3 3 3 3 3 4 5 5 5 5 4 4 4 3 3 2 2 2 2 2 2 3 4 4 3 3 2 1 1 0
3 3 3 2 2 2 2 1 1 2 2 2 2 3 3 3 3 3 3 4 4 4 5 5 5 4 3 3 2 2 2 2 2 2 2 2 3 3 3 3 2 2 1 1 1